Tracking 19572 objects as of 23-Feb-2019
HD Live streaming from Space Station
objects crossing your sky now

COSMOS 1636

Track COSMOS 1636 now!
10-day predictions
COSMOS 1636 is classified as:


NORAD ID: 15618
Int'l Code: 1985-023B
Perigee: 1,482.0 km
Apogee: 1,500.6 km
Inclination: 74.1 °
Period: 115.6 minutes
Semi major axis: 7862 km
RCS: 0.6956 m2 (medium)
Launch date: March 21, 1985
Source: Commonwealth of Independent States (former USSR) (CIS)
Launch site: PLESETSK MISSILE AND SPACE COMPLEX (PKMTR)
aabbcc
Your satellite tracking list
Your tracking list is empty




NASA's NSSDC Master Catalog

Two Line Element Set (TLE):
1 15618U 85023B   19053.69749637 -.00000009 +00000-0 +42390-4 0  9990
2 15618 074.0535 093.1787 0011852 087.8049 028.3953 12.45315799542293
Source of the keplerian elements: AFSPC